This is the latest recevied weather packets stored in our database for station/object W8UFO-13. If no packets are shown the sender has not sent any weather packets the latest 1 day(s).
| Time | Temp. | Humidity | Pressure | Rain* | Wind** | Luminosity | Snow |
|---|---|---|---|---|---|---|---|
| 1778022857 | 23.89° C | 51% | 1011.9 hPa | 0 mm | 1.34 m/s, 293° | - | - |
| 1778022557 | 23.89° C | 53% | 1011.7 hPa | 0 mm | 0.89 m/s, 225° | - | - |
| 1778022262 | 24.44° C | 52% | 1012 hPa | 0 mm | 0.89 m/s, 248° | - | - |
| 1778021957 | 24.44° C | 51% | 1012 hPa | 0 mm | 0.89 m/s, 203° | - | - |
| 1778021657 | 25° C | 50% | 1011.9 hPa | 0 mm | 1.34 m/s, 248° | - | - |
| 1778021357 | 25° C | 51% | 1012 hPa | 0 mm | 0.89 m/s, 270° | - | - |
| 1778021057 | 25° C | 52% | 1012 hPa | 0 mm | 0.89 m/s, 248° | - | - |
| 1778020757 | 24.44° C | 51% | 1012 hPa | 0 mm | 0.45 m/s, 248° | - | - |
| 1778020457 | 23.89° C | 53% | 1012 hPa | 0 mm | 0.45 m/s, 203° | - | - |
| 1778020157 | 23.89° C | 53% | 1012.1 hPa | 0 mm | 0.89 m/s, 203° | - | - |
| 1778019857 | 24.44° C | 51% | 1012.2 hPa | 0 mm | 0.45 m/s, 180° | - | - |
| 1778019557 | 24.44° C | 52% | 1012.3 hPa | 0 mm | 0.45 m/s, 203° | - | - |
| 1778019257 | 24.44° C | 51% | 1012.2 hPa | 0 mm | 0.45 m/s, 225° | - | - |
| 1778018957 | 24.44° C | 52% | 1012.3 hPa | 0 mm | 0.45 m/s, 225° | - | - |
| 1778018657 | 24.44° C | 51% | 1012.3 hPa | 0 mm | 0.45 m/s, 203° | - | - |
| 1778018357 | 24.44° C | 50% | 1012.3 hPa | 0 mm | 1.34 m/s, 225° | - | - |
| 1778018057 | 25° C | 49% | 1012.4 hPa | 0 mm | 0.89 m/s, 248° | - | - |
| 1778017757 | 25° C | 49% | 1012.3 hPa | 0 mm | 0.89 m/s, 270° | - | - |
| 1778017457 | 25° C | 49% | 1012.3 hPa | 0 mm | 0.89 m/s, 203° | - | - |
| 1778017157 | 25° C | 48% | 1012.5 hPa | 0 mm | 0.45 m/s, 225° | - | - |
| 1778016857 | 25° C | 47% | 1012.7 hPa | 0 mm | 1.79 m/s, 248° | - | - |
| 1778016257 | 25.56° C | 47% | 1012.7 hPa | 0 mm | 0.89 m/s, 158° | - | - |
| 1778015957 | 25.56° C | 45% | 1012.8 hPa | 0 mm | 0.45 m/s, 203° | - | - |
| 1778015657 | 25.56° C | 45% | 1012.8 hPa | 0 mm | 0.45 m/s, 158° | - | - |
| 1778015357 | 26.11° C | 45% | 1012.8 hPa | 0 mm | 0.45 m/s, 225° | - | - |
* Rain latest hour (hover to see other rain measurements)
** Current wind speed in m/s (hover to see current wind gust speed)